Year,Month,Day,Hour,Minute,Value (Times are PST for windgust in km/hr)
2010,06,02,00,00,22.50
2010,06,02,00,01,27.40
2010,06,02,00,02,29.00
2010,06,02,00,03,22.50
2010,06,02,00,04,29.00
2010,06,02,00,05,19.30
2010,06,02,00,06,27.40
2010,06,02,00,07,30.60
2010,06,02,00,08,20.90
2010,06,02,00,09,22.50
2010,06,02,00,10,25.70
2010,06,02,00,11,22.50
2010,06,02,00,12,17.70
2010,06,02,00,13,20.90
2010,06,02,00,14,22.50
2010,06,02,00,15,20.90
2010,06,02,00,16,19.30
2010,06,02,00,17,25.70
2010,06,02,00,18,19.30
2010,06,02,00,19,20.90
2010,06,02,00,20,22.50
2010,06,02,00,21,17.70
2010,06,02,00,22,20.90
2010,06,02,00,23,22.50
2010,06,02,00,24,20.90
2010,06,02,00,25,22.50
2010,06,02,00,26,19.30
2010,06,02,00,27,27.40
2010,06,02,00,28,19.30
2010,06,02,00,29,19.30
2010,06,02,00,30,17.70
2010,06,02,00,31,19.30
2010,06,02,00,32,17.70
2010,06,02,00,33,17.70
2010,06,02,00,34,19.30
2010,06,02,00,35,16.10
2010,06,02,00,36,16.10
2010,06,02,00,37,17.70
2010,06,02,00,38,22.50
2010,06,02,00,39,20.90
2010,06,02,00,40,17.70
2010,06,02,00,41,16.10
2010,06,02,00,42,20.90
2010,06,02,00,43,19.30
2010,06,02,00,44,16.10
2010,06,02,00,45,17.70
2010,06,02,00,46,20.90
2010,06,02,00,47,12.90
2010,06,02,00,48,12.90
2010,06,02,00,49,24.20
2010,06,02,00,50,17.70
2010,06,02,00,51,20.90
2010,06,02,00,52,16.10
2010,06,02,00,53,25.70
2010,06,02,00,54,20.90
2010,06,02,00,55,19.30
2010,06,02,00,56,17.70
2010,06,02,00,57,19.30
2010,06,02,00,58,19.30
2010,06,02,00,59,14.50
2010,06,02,01,00,17.70
2010,06,02,01,01,20.90
2010,06,02,01,02,19.30
2010,06,02,01,03,17.70
2010,06,02,01,04,20.90
2010,06,02,01,05,17.70
2010,06,02,01,06,16.10
2010,06,02,01,07,22.50
2010,06,02,01,08,22.50
2010,06,02,01,09,17.70
2010,06,02,01,10,12.90
2010,06,02,01,11,19.30
2010,06,02,01,12,19.30
2010,06,02,01,13,20.90
2010,06,02,01,14,17.70
2010,06,02,01,15,17.70
2010,06,02,01,16,22.50
2010,06,02,01,17,11.30
2010,06,02,01,18,17.70
2010,06,02,01,19,16.10
2010,06,02,01,20,20.90
2010,06,02,01,21,16.10
2010,06,02,01,22,16.10
2010,06,02,01,23,17.70
2010,06,02,01,24,22.50
2010,06,02,01,25,11.30
2010,06,02,01,26,16.10
2010,06,02,01,27,19.30
2010,06,02,01,28,16.10
2010,06,02,01,29,11.30
2010,06,02,01,30,14.50
2010,06,02,01,31,12.90
2010,06,02,01,32,20.90
2010,06,02,01,33,17.70
2010,06,02,01,34,16.10
2010,06,02,01,35,11.30
2010,06,02,01,36,9.60
2010,06,02,01,37,11.30
2010,06,02,01,38,12.90
2010,06,02,01,39,12.90
2010,06,02,01,40,12.90
2010,06,02,01,41,9.60
2010,06,02,01,42,12.90
2010,06,02,01,43,12.90
2010,06,02,01,44,12.90
2010,06,02,01,45,11.30
2010,06,02,01,46,14.50
2010,06,02,01,47,11.30
2010,06,02,01,48,11.30
2010,06,02,01,49,16.10
2010,06,02,01,50,16.10
2010,06,02,01,51,16.10
2010,06,02,01,52,11.30
2010,06,02,01,53,12.90
2010,06,02,01,54,11.30
2010,06,02,01,55,12.90
2010,06,02,01,56,11.30
2010,06,02,01,57,16.10
2010,06,02,01,58,17.70
2010,06,02,01,59,16.10
2010,06,02,02,00,11.30
2010,06,02,02,01,11.30
2010,06,02,02,02,12.90
2010,06,02,02,03,11.30
2010,06,02,02,04,16.10
2010,06,02,02,05,14.50
2010,06,02,02,06,20.90
2010,06,02,02,07,19.30
2010,06,02,02,08,12.90
2010,06,02,02,09,16.10
2010,06,02,02,10,14.50
2010,06,02,02,11,11.30
2010,06,02,02,12,17.70
2010,06,02,02,13,14.50
2010,06,02,02,14,19.30
2010,06,02,02,15,11.30
2010,06,02,02,16,19.30
2010,06,02,02,17,17.70
2010,06,02,02,18,11.30
2010,06,02,02,19,12.90
2010,06,02,02,20,12.90
2010,06,02,02,21,11.30
2010,06,02,02,22,12.90
2010,06,02,02,23,19.30
2010,06,02,02,24,20.90
2010,06,02,02,25,16.10
2010,06,02,02,26,14.50
2010,06,02,02,27,19.30
2010,06,02,02,28,17.70
2010,06,02,02,29,17.70
2010,06,02,02,30,20.90
2010,06,02,02,31,12.90
2010,06,02,02,32,17.70
2010,06,02,02,33,17.70
2010,06,02,02,34,17.70
2010,06,02,02,35,14.50
2010,06,02,02,36,11.30
2010,06,02,02,37,12.90
2010,06,02,02,38,17.70
2010,06,02,02,39,16.10
2010,06,02,02,40,11.30
2010,06,02,02,41,14.50
2010,06,02,02,42,11.30
2010,06,02,02,43,14.50
2010,06,02,02,44,9.60
2010,06,02,02,45,11.30
2010,06,02,02,46,9.60
2010,06,02,02,47,11.30
2010,06,02,02,48,11.30
2010,06,02,02,49,6.40
2010,06,02,02,50,8.10
2010,06,02,02,51,9.60
2010,06,02,02,52,9.60
2010,06,02,02,53,8.10
2010,06,02,02,54,9.60
2010,06,02,02,55,9.60
2010,06,02,02,56,8.10
2010,06,02,02,57,6.40
2010,06,02,02,58,8.10
2010,06,02,02,59,9.60
2010,06,02,03,00,9.60
2010,06,02,03,01,4.80
2010,06,02,03,02,8.10
2010,06,02,03,03,3.20
2010,06,02,03,04,6.40
2010,06,02,03,05,4.80
2010,06,02,03,06,8.10
2010,06,02,03,07,3.20
2010,06,02,03,08,1.60
2010,06,02,03,09,4.80
2010,06,02,03,10,1.60
2010,06,02,03,11,3.20
2010,06,02,03,12,3.20
2010,06,02,03,13,6.40
2010,06,02,03,14,6.40
2010,06,02,03,15,4.80
2010,06,02,03,16,9.60
2010,06,02,03,17,4.80
2010,06,02,03,18,4.80
2010,06,02,03,19,3.20
2010,06,02,03,20,4.80
2010,06,02,03,21,6.40
2010,06,02,03,22,4.80
2010,06,02,03,23,1.60
2010,06,02,03,24,3.20
2010,06,02,03,26,4.80
2010,06,02,03,27,8.10
2010,06,02,03,28,9.60
2010,06,02,03,29,9.60
2010,06,02,03,30,11.30
2010,06,02,03,31,8.10
2010,06,02,03,32,8.10
2010,06,02,03,33,6.40
2010,06,02,03,34,9.60
2010,06,02,03,35,3.20
2010,06,02,03,36,4.80
2010,06,02,03,38,4.80
2010,06,02,03,39,4.80
2010,06,02,03,40,1.60
2010,06,02,03,41,9.60
2010,06,02,03,42,4.80
2010,06,02,03,43,8.10
2010,06,02,03,44,4.80
2010,06,02,03,46,4.80
2010,06,02,03,47,1.60
2010,06,02,03,48,1.60
2010,06,02,03,49,3.20
2010,06,02,03,50,4.80
2010,06,02,03,51,4.80
2010,06,02,03,52,4.80
2010,06,02,03,53,6.40
2010,06,02,03,54,9.60
2010,06,02,03,55,6.40
2010,06,02,03,56,9.60
2010,06,02,03,57,11.30
2010,06,02,03,58,11.30
2010,06,02,03,59,11.30
2010,06,02,04,00,12.90
2010,06,02,04,01,11.30
2010,06,02,04,02,12.90
2010,06,02,04,03,14.50
2010,06,02,04,04,16.10
2010,06,02,04,05,12.90
2010,06,02,04,06,12.90
2010,06,02,04,07,14.50
2010,06,02,04,08,14.50
2010,06,02,04,09,12.90
2010,06,02,04,10,9.60
2010,06,02,04,11,14.50
2010,06,02,04,12,12.90
2010,06,02,04,13,9.60
2010,06,02,04,14,12.90
2010,06,02,04,15,12.90
2010,06,02,04,16,12.90
2010,06,02,04,17,16.10
2010,06,02,04,18,11.30
2010,06,02,04,19,14.50
2010,06,02,04,20,12.90
2010,06,02,04,21,14.50
2010,06,02,04,22,11.30
2010,06,02,04,23,6.40
2010,06,02,04,24,16.10
2010,06,02,04,25,9.60
2010,06,02,04,26,9.60
2010,06,02,04,27,4.80
2010,06,02,04,28,6.40
2010,06,02,04,29,4.80
2010,06,02,04,30,4.80
2010,06,02,04,31,3.20
2010,06,02,04,32,8.10
2010,06,02,04,33,8.10
2010,06,02,04,34,9.60
2010,06,02,04,35,3.20
2010,06,02,04,36,3.20
2010,06,02,04,37,9.60
2010,06,02,04,38,6.40
2010,06,02,04,39,4.80
2010,06,02,04,40,3.20
2010,06,02,04,41,3.20
2010,06,02,04,42,1.60
2010,06,02,04,43,6.40
2010,06,02,04,44,8.10
2010,06,02,04,45,4.80
2010,06,02,04,46,11.30
2010,06,02,04,47,11.30
2010,06,02,04,48,11.30
2010,06,02,04,49,12.90
2010,06,02,04,50,11.30
2010,06,02,04,51,11.30
2010,06,02,04,52,9.60
2010,06,02,04,53,9.60
2010,06,02,04,54,11.30
2010,06,02,04,55,12.90
2010,06,02,04,56,11.30
2010,06,02,04,57,11.30
2010,06,02,04,58,11.30
2010,06,02,04,59,11.30
2010,06,02,05,00,12.90
2010,06,02,05,01,6.40
2010,06,02,05,02,11.30
2010,06,02,05,03,8.10
2010,06,02,05,04,9.60
2010,06,02,05,05,6.40
2010,06,02,05,06,12.90
2010,06,02,05,07,17.70
2010,06,02,05,08,9.60
2010,06,02,05,09,12.90
2010,06,02,05,10,11.30
2010,06,02,05,11,9.60
2010,06,02,05,12,17.70
2010,06,02,05,13,16.10
2010,06,02,05,14,16.10
2010,06,02,05,15,14.50
2010,06,02,05,16,14.50
2010,06,02,05,17,20.90
2010,06,02,05,18,12.90
2010,06,02,05,19,17.70
2010,06,02,05,20,11.30
2010,06,02,05,21,9.60
2010,06,02,05,22,8.10
2010,06,02,05,23,14.50
2010,06,02,05,24,14.50
2010,06,02,05,25,12.90
2010,06,02,05,26,19.30
2010,06,02,05,27,20.90
2010,06,02,05,28,16.10
2010,06,02,05,29,11.30
2010,06,02,05,30,20.90
2010,06,02,05,31,16.10
2010,06,02,05,32,19.30
2010,06,02,05,33,9.60
2010,06,02,05,34,12.90
2010,06,02,05,35,16.10
2010,06,02,05,36,14.50
2010,06,02,05,37,16.10
2010,06,02,05,38,11.30
2010,06,02,05,39,16.10
2010,06,02,05,40,17.70
2010,06,02,05,41,17.70
2010,06,02,05,42,14.50
2010,06,02,05,43,12.90
2010,06,02,05,44,12.90
2010,06,02,05,45,16.10
2010,06,02,05,46,25.70
2010,06,02,05,47,19.30
2010,06,02,05,48,17.70
2010,06,02,05,49,17.70
2010,06,02,05,50,9.60
2010,06,02,05,51,17.70
2010,06,02,05,52,12.90
2010,06,02,05,53,22.50
2010,06,02,05,54,19.30
2010,06,02,05,55,12.90
2010,06,02,05,56,11.30
2010,06,02,05,57,17.70
2010,06,02,05,58,17.70
2010,06,02,05,59,20.90
2010,06,02,06,00,19.30
2010,06,02,06,01,12.90
2010,06,02,06,02,19.30
2010,06,02,06,03,17.70
2010,06,02,06,04,19.30
2010,06,02,06,05,17.70
2010,06,02,06,06,17.70
2010,06,02,06,07,19.30
2010,06,02,06,08,16.10
2010,06,02,06,09,17.70
2010,06,02,06,10,14.50
2010,06,02,06,11,16.10
2010,06,02,06,12,19.30
2010,06,02,06,13,19.30
2010,06,02,06,14,20.90
2010,06,02,06,15,20.90
2010,06,02,06,16,17.70
2010,06,02,06,17,16.10
2010,06,02,06,18,17.70
2010,06,02,06,19,19.30
2010,06,02,06,20,22.50
2010,06,02,06,21,19.30
2010,06,02,06,22,20.90
2010,06,02,06,23,14.50
2010,06,02,06,24,19.30
2010,06,02,06,25,17.70
2010,06,02,06,26,12.90
2010,06,02,06,27,11.30
2010,06,02,06,28,16.10
2010,06,02,06,29,16.10
2010,06,02,06,30,25.70
2010,06,02,06,31,17.70
2010,06,02,06,32,12.90
2010,06,02,06,33,16.10
2010,06,02,06,34,12.90
2010,06,02,06,35,17.70
2010,06,02,06,36,14.50
2010,06,02,06,37,14.50
2010,06,02,06,38,12.90
2010,06,02,06,39,16.10
2010,06,02,06,40,12.90
2010,06,02,06,41,17.70
2010,06,02,06,42,17.70
2010,06,02,06,43,20.90
2010,06,02,06,44,16.10
2010,06,02,06,45,19.30
2010,06,02,06,46,14.50
2010,06,02,06,47,17.70
2010,06,02,06,48,11.30
2010,06,02,06,49,19.30
2010,06,02,06,50,20.90
2010,06,02,06,51,8.10
2010,06,02,06,52,12.90
2010,06,02,06,53,11.30
2010,06,02,06,54,11.30
2010,06,02,06,55,12.90
2010,06,02,06,56,20.90
2010,06,02,06,57,11.30
2010,06,02,06,58,14.50
2010,06,02,06,59,19.30
2010,06,02,07,00,16.10
2010,06,02,07,01,16.10
2010,06,02,07,02,19.30
2010,06,02,07,03,17.70
2010,06,02,07,04,14.50
2010,06,02,07,05,19.30
2010,06,02,07,06,9.60
2010,06,02,07,07,17.70
2010,06,02,07,08,12.90
2010,06,02,07,09,14.50
2010,06,02,07,10,9.60
2010,06,02,07,11,12.90
2010,06,02,07,12,6.40
2010,06,02,07,13,11.30
2010,06,02,07,14,12.90
2010,06,02,07,15,12.90
2010,06,02,07,16,8.10
2010,06,02,07,17,12.90
2010,06,02,07,18,8.10
2010,06,02,07,19,9.60
2010,06,02,07,20,6.40
2010,06,02,07,21,8.10
2010,06,02,07,22,4.80
2010,06,02,07,23,9.60
2010,06,02,07,24,4.80
2010,06,02,07,25,4.80
2010,06,02,07,26,9.60
2010,06,02,07,27,4.80
2010,06,02,07,28,6.40
2010,06,02,07,29,6.40
2010,06,02,07,30,4.80
2010,06,02,07,31,4.80
2010,06,02,07,32,4.80
2010,06,02,07,33,8.10
2010,06,02,07,34,4.80
2010,06,02,07,35,8.10
2010,06,02,07,36,6.40
2010,06,02,07,37,8.10
2010,06,02,07,38,11.30
2010,06,02,07,39,11.30
2010,06,02,07,40,11.30
2010,06,02,07,41,12.90
2010,06,02,07,42,12.90
2010,06,02,07,43,9.60
2010,06,02,07,44,12.90
2010,06,02,07,45,17.70
2010,06,02,07,46,16.10
2010,06,02,07,47,9.60
2010,06,02,07,48,14.50
2010,06,02,07,49,16.10
2010,06,02,07,50,12.90
2010,06,02,07,51,14.50
2010,06,02,07,52,17.70
2010,06,02,07,53,12.90
2010,06,02,07,54,12.90
2010,06,02,07,55,9.60
2010,06,02,07,56,12.90
2010,06,02,07,57,12.90
2010,06,02,07,58,16.10
2010,06,02,07,59,17.70
2010,06,02,08,00,17.70
2010,06,02,08,01,11.30
2010,06,02,08,02,12.90
2010,06,02,08,03,11.30
2010,06,02,08,04,12.90
2010,06,02,08,05,14.50
2010,06,02,08,06,17.70
2010,06,02,08,07,14.50
2010,06,02,08,08,22.50
2010,06,02,08,09,14.50
2010,06,02,08,10,20.90
2010,06,02,08,11,22.50
2010,06,02,08,12,17.70
2010,06,02,08,13,16.10
2010,06,02,08,14,12.90
2010,06,02,08,15,16.10
2010,06,02,08,16,17.70
2010,06,02,08,17,12.90
2010,06,02,08,18,17.70
2010,06,02,08,19,16.10
2010,06,02,08,20,12.90
2010,06,02,08,21,16.10
2010,06,02,08,22,16.10
2010,06,02,08,23,19.30
2010,06,02,08,24,14.50
2010,06,02,08,25,12.90
2010,06,02,08,26,11.30
2010,06,02,08,27,9.60
2010,06,02,08,28,14.50
2010,06,02,08,29,14.50
2010,06,02,08,30,11.30
2010,06,02,08,31,19.30
2010,06,02,08,32,11.30
2010,06,02,08,33,17.70
2010,06,02,08,34,11.30
2010,06,02,08,35,9.60
2010,06,02,08,36,8.10
2010,06,02,08,37,16.10
2010,06,02,08,38,19.30
2010,06,02,08,39,14.50
2010,06,02,08,40,12.90
2010,06,02,08,41,12.90
2010,06,02,08,42,12.90
2010,06,02,08,43,16.10
2010,06,02,08,44,17.70
2010,06,02,08,45,12.90
2010,06,02,08,46,16.10
2010,06,02,08,47,12.90
2010,06,02,08,48,12.90
2010,06,02,08,49,8.10
2010,06,02,08,50,12.90
2010,06,02,08,51,11.30
2010,06,02,08,52,11.30
2010,06,02,08,53,6.40
2010,06,02,08,54,16.10
2010,06,02,08,55,12.90
2010,06,02,08,56,11.30
2010,06,02,08,57,6.40
2010,06,02,08,58,12.90
2010,06,02,08,59,12.90
2010,06,02,09,00,9.60
2010,06,02,09,01,4.80
2010,06,02,09,02,11.30
2010,06,02,09,03,12.90
2010,06,02,09,04,16.10
2010,06,02,09,05,11.30
2010,06,02,09,06,12.90
2010,06,02,09,07,12.90
2010,06,02,09,08,6.40
2010,06,02,09,09,12.90
2010,06,02,09,10,11.30
2010,06,02,09,11,12.90
2010,06,02,09,12,12.90
2010,06,02,09,13,11.30
2010,06,02,09,14,11.30
2010,06,02,09,15,8.10
2010,06,02,09,16,8.10
2010,06,02,09,17,12.90
2010,06,02,09,18,3.20
2010,06,02,09,19,4.80
2010,06,02,09,21,4.80
2010,06,02,09,22,6.40
2010,06,02,09,23,3.20
2010,06,02,09,24,1.60
2010,06,02,09,25,3.20
2010,06,02,09,26,3.20
2010,06,02,09,27,4.80
2010,06,02,09,28,4.80
2010,06,02,09,29,6.40
2010,06,02,09,30,4.80
2010,06,02,09,31,3.20
2010,06,02,09,32,4.80
2010,06,02,09,33,4.80
2010,06,02,09,34,8.10
2010,06,02,09,35,9.60
2010,06,02,09,36,4.80
2010,06,02,09,37,8.10
2010,06,02,09,38,8.10
2010,06,02,09,39,3.20
2010,06,02,09,40,4.80
2010,06,02,09,41,3.20
2010,06,02,09,43,8.10
2010,06,02,09,44,4.80
2010,06,02,09,45,4.80
2010,06,02,09,48,3.20
2010,06,02,09,49,3.20
2010,06,02,09,50,3.20
2010,06,02,09,53,1.60
2010,06,02,09,55,1.60
2010,06,02,09,56,3.20
2010,06,02,09,57,3.20
2010,06,02,09,58,3.20
2010,06,02,10,00,4.80
2010,06,02,10,01,6.40
2010,06,02,10,02,8.10
2010,06,02,10,03,1.60
2010,06,02,10,04,8.10
2010,06,02,10,05,6.40
2010,06,02,10,07,8.10
2010,06,02,10,08,8.10
2010,06,02,10,09,1.60
2010,06,02,10,10,3.20
2010,06,02,10,13,3.20
2010,06,02,10,15,1.60
2010,06,02,10,16,3.20
2010,06,02,10,19,3.20
2010,06,02,10,20,3.20
2010,06,02,10,21,3.20
2010,06,02,10,22,3.20
2010,06,02,10,23,3.20
2010,06,02,10,24,1.60
2010,06,02,10,25,1.60
2010,06,02,10,31,1.60
2010,06,02,10,32,1.60
2010,06,02,10,36,1.60
2010,06,02,10,37,4.80
2010,06,02,10,44,1.60
2010,06,02,10,49,1.60
2010,06,02,10,52,3.20
2010,06,02,10,54,1.60
2010,06,02,10,56,1.60
2010,06,02,11,00,3.20
2010,06,02,11,02,1.60
2010,06,02,11,03,3.20
2010,06,02,11,04,3.20
2010,06,02,11,05,3.20
2010,06,02,11,08,3.20
2010,06,02,11,09,1.60
2010,06,02,11,13,4.80
2010,06,02,11,14,3.20
2010,06,02,11,22,1.60
2010,06,02,11,26,3.20
2010,06,02,11,27,3.20
2010,06,02,11,28,1.60
2010,06,02,11,31,1.60
2010,06,02,11,32,4.80
2010,06,02,11,33,4.80
2010,06,02,11,34,4.80
2010,06,02,11,35,4.80
2010,06,02,11,36,1.60
2010,06,02,11,41,1.60
2010,06,02,11,42,1.60
2010,06,02,11,44,4.80
2010,06,02,11,45,4.80
2010,06,02,11,46,9.60
2010,06,02,11,47,6.40
2010,06,02,11,48,4.80
2010,06,02,11,49,6.40
2010,06,02,11,50,4.80
2010,06,02,11,51,4.80
2010,06,02,11,52,1.60
2010,06,02,11,53,3.20
2010,06,02,11,54,4.80
2010,06,02,11,55,3.20
2010,06,02,11,56,3.20
2010,06,02,11,57,3.20
2010,06,02,11,59,4.80
2010,06,02,12,00,4.80
2010,06,02,12,01,3.20
2010,06,02,12,02,4.80
2010,06,02,12,03,8.10
2010,06,02,12,04,3.20
2010,06,02,12,05,4.80
2010,06,02,12,06,4.80
2010,06,02,12,07,3.20
2010,06,02,12,08,6.40
2010,06,02,12,09,9.60
2010,06,02,12,10,9.60
2010,06,02,12,11,3.20
2010,06,02,12,12,4.80
2010,06,02,12,13,1.60
2010,06,02,12,14,6.40
2010,06,02,12,15,4.80
2010,06,02,12,16,4.80
2010,06,02,12,17,8.10
2010,06,02,12,18,16.10
2010,06,02,12,19,11.30
2010,06,02,12,20,12.90
2010,06,02,12,21,11.30
2010,06,02,12,22,8.10
2010,06,02,12,23,6.40
2010,06,02,12,24,3.20
2010,06,02,12,25,9.60
2010,06,02,12,26,11.30
2010,06,02,12,27,9.60
2010,06,02,12,28,8.10
2010,06,02,12,29,9.60
2010,06,02,12,30,9.60
2010,06,02,12,31,16.10
2010,06,02,12,32,11.30
2010,06,02,12,33,19.30
2010,06,02,12,34,17.70
2010,06,02,12,35,8.10
2010,06,02,12,36,12.90
2010,06,02,12,37,12.90
2010,06,02,12,38,11.30
2010,06,02,12,39,11.30
2010,06,02,12,40,11.30
2010,06,02,12,41,19.30
2010,06,02,12,42,19.30
2010,06,02,12,43,11.30
2010,06,02,12,44,11.30
2010,06,02,12,45,20.90
2010,06,02,12,46,25.70
2010,06,02,12,47,20.90
2010,06,02,12,48,20.90
2010,06,02,12,49,20.90
2010,06,02,12,50,22.50
2010,06,02,12,51,17.70
2010,06,02,12,52,9.60
2010,06,02,12,53,20.90
2010,06,02,12,54,16.10
2010,06,02,12,55,22.50
2010,06,02,12,56,25.70
2010,06,02,12,57,12.90
2010,06,02,12,58,19.30
2010,06,02,12,59,22.50
2010,06,02,13,00,12.90
2010,06,02,13,01,19.30
2010,06,02,13,02,20.90
2010,06,02,13,03,22.50
2010,06,02,13,04,20.90
2010,06,02,13,05,17.70
2010,06,02,13,06,19.30
2010,06,02,13,07,22.50
2010,06,02,13,08,20.90
2010,06,02,13,09,25.70
2010,06,02,13,10,17.70
2010,06,02,13,11,19.30
2010,06,02,13,12,20.90
2010,06,02,13,13,20.90
2010,06,02,13,14,20.90
2010,06,02,13,15,19.30
2010,06,02,13,16,16.10
2010,06,02,13,17,16.10
2010,06,02,13,18,22.50
2010,06,02,13,19,17.70
2010,06,02,13,20,19.30
2010,06,02,13,21,19.30
2010,06,02,13,22,19.30
2010,06,02,13,23,14.50
2010,06,02,13,24,20.90
2010,06,02,13,25,19.30
2010,06,02,13,26,19.30
2010,06,02,13,27,11.30
2010,06,02,13,28,19.30
2010,06,02,13,29,19.30
2010,06,02,13,30,19.30
2010,06,02,13,31,17.70
2010,06,02,13,32,20.90
2010,06,02,13,33,19.30
2010,06,02,13,34,27.40
2010,06,02,13,35,22.50
2010,06,02,13,36,20.90
2010,06,02,13,37,17.70
2010,06,02,13,38,11.30
2010,06,02,13,39,11.30
2010,06,02,13,40,11.30
2010,06,02,13,41,20.90
2010,06,02,13,42,17.70
2010,06,02,13,43,19.30
2010,06,02,13,44,22.50
2010,06,02,13,45,25.70
2010,06,02,13,46,20.90
2010,06,02,13,47,19.30
2010,06,02,13,48,17.70
2010,06,02,13,49,11.30
2010,06,02,13,50,16.10
2010,06,02,13,51,11.30
2010,06,02,13,52,16.10
2010,06,02,13,53,14.50
2010,06,02,13,54,20.90
2010,06,02,13,55,27.40
2010,06,02,13,56,29.00
2010,06,02,13,57,25.70
2010,06,02,13,58,14.50
2010,06,02,13,59,20.90
2010,06,02,14,00,14.50
2010,06,02,14,01,11.30
2010,06,02,14,02,12.90
2010,06,02,14,03,11.30
2010,06,02,14,04,16.10
2010,06,02,14,05,16.10
2010,06,02,14,06,33.80
2010,06,02,14,07,19.30
2010,06,02,14,08,20.90
2010,06,02,14,09,20.90
2010,06,02,14,10,27.40
2010,06,02,14,11,35.40
2010,06,02,14,12,29.00
2010,06,02,14,13,33.80
2010,06,02,14,14,14.50
2010,06,02,14,15,19.30
2010,06,02,14,16,30.60
2010,06,02,14,17,27.40
2010,06,02,14,18,30.60
2010,06,02,14,19,27.40
2010,06,02,14,20,32.20
2010,06,02,14,21,19.30
2010,06,02,14,22,27.40
2010,06,02,14,23,25.70
2010,06,02,14,24,29.00
2010,06,02,14,25,25.70
2010,06,02,14,26,20.90
2010,06,02,14,27,29.00
2010,06,02,14,28,19.30
2010,06,02,14,29,19.30
2010,06,02,14,30,27.40
2010,06,02,14,31,27.40
2010,06,02,14,32,17.70
2010,06,02,14,33,25.70
2010,06,02,14,34,29.00
2010,06,02,14,35,27.40
2010,06,02,14,36,25.70
2010,06,02,14,37,19.30
2010,06,02,14,38,22.50
2010,06,02,14,39,27.40
2010,06,02,14,40,22.50
2010,06,02,14,41,17.70
2010,06,02,14,42,27.40
2010,06,02,14,43,22.50
2010,06,02,14,44,27.40
2010,06,02,14,45,19.30
2010,06,02,14,46,16.10
2010,06,02,14,47,32.20
2010,06,02,14,48,22.50
2010,06,02,14,49,30.60
2010,06,02,14,50,35.40
2010,06,02,14,51,35.40
2010,06,02,14,52,29.00
2010,06,02,14,53,24.20
2010,06,02,14,54,25.70
2010,06,02,14,55,22.50
2010,06,02,14,56,30.60
2010,06,02,14,57,33.80
2010,06,02,14,58,30.60
2010,06,02,14,59,29.00
2010,06,02,15,00,29.00
2010,06,02,15,01,40.20
2010,06,02,15,02,27.40
2010,06,02,15,03,40.20
2010,06,02,15,04,35.40
2010,06,02,15,05,32.20
2010,06,02,15,06,30.60
2010,06,02,15,07,29.00
2010,06,02,15,08,35.40
2010,06,02,15,09,40.20
2010,06,02,15,10,27.40
2010,06,02,15,11,32.20
2010,06,02,15,12,38.60
2010,06,02,15,13,41.80
2010,06,02,15,14,33.80
2010,06,02,15,15,17.70
2010,06,02,15,16,29.00
2010,06,02,15,17,19.30
2010,06,02,15,18,29.00
2010,06,02,15,19,41.80
2010,06,02,15,20,32.20
2010,06,02,15,21,41.80
2010,06,02,15,22,45.10
2010,06,02,15,23,29.00
2010,06,02,15,24,25.70
2010,06,02,15,25,19.30
2010,06,02,15,26,19.30
2010,06,02,15,27,29.00
2010,06,02,15,28,25.70
2010,06,02,15,29,30.60
2010,06,02,15,30,32.20
2010,06,02,15,31,33.80
2010,06,02,15,32,35.40
2010,06,02,15,33,35.40
2010,06,02,15,34,33.80
2010,06,02,15,35,32.20
2010,06,02,15,36,27.40
2010,06,02,15,37,40.20
2010,06,02,15,38,38.60
2010,06,02,15,39,33.80
2010,06,02,15,40,32.20
2010,06,02,15,41,38.60
2010,06,02,15,42,33.80
2010,06,02,15,43,38.60
2010,06,02,15,44,35.40
2010,06,02,15,45,38.60
2010,06,02,15,46,41.80
2010,06,02,15,47,38.60
2010,06,02,15,48,41.80
2010,06,02,15,49,33.80
2010,06,02,15,50,30.60
2010,06,02,15,51,38.60
2010,06,02,15,52,35.40
2010,06,02,15,53,30.60
2010,06,02,15,54,33.80
2010,06,02,15,55,35.40
2010,06,02,15,56,33.80
2010,06,02,15,57,38.60
2010,06,02,15,58,30.60
2010,06,02,15,59,25.70
2010,06,02,16,00,35.40
2010,06,02,16,01,30.60
2010,06,02,16,02,22.50
2010,06,02,16,03,40.20
2010,06,02,16,04,27.40
2010,06,02,16,05,35.40
2010,06,02,16,06,43.50
2010,06,02,16,07,30.60
2010,06,02,16,08,29.00
2010,06,02,16,09,35.40
2010,06,02,16,10,24.20
2010,06,02,16,11,25.70
2010,06,02,16,12,30.60
2010,06,02,16,13,27.40
2010,06,02,16,14,38.60
2010,06,02,16,15,33.80
2010,06,02,16,16,35.40
2010,06,02,16,17,33.80
2010,06,02,16,18,35.40
2010,06,02,16,19,35.40
2010,06,02,16,20,32.20
2010,06,02,16,21,30.60
2010,06,02,16,22,25.70
2010,06,02,16,23,41.80
2010,06,02,16,24,30.60
2010,06,02,16,25,35.40
2010,06,02,16,26,32.20
2010,06,02,16,27,33.80
2010,06,02,16,28,38.60
2010,06,02,16,29,41.80
2010,06,02,16,30,40.20
2010,06,02,16,31,35.40
2010,06,02,16,32,32.20
2010,06,02,16,33,32.20
2010,06,02,16,34,30.60
2010,06,02,16,35,41.80
2010,06,02,16,36,33.80
2010,06,02,16,37,40.20
2010,06,02,16,38,32.20
2010,06,02,16,39,41.80
2010,06,02,16,40,45.10
2010,06,02,16,41,40.20
2010,06,02,16,42,27.40
2010,06,02,16,43,48.30
2010,06,02,16,44,35.40
2010,06,02,16,45,27.40
2010,06,02,16,46,30.60
2010,06,02,16,47,30.60
2010,06,02,16,48,30.60
2010,06,02,16,49,29.00
2010,06,02,16,50,29.00
2010,06,02,16,51,40.20
2010,06,02,16,52,40.20
2010,06,02,16,53,35.40
2010,06,02,16,54,27.40
2010,06,02,16,55,32.20
2010,06,02,16,56,33.80
2010,06,02,16,57,33.80
2010,06,02,16,58,35.40
2010,06,02,16,59,38.60
2010,06,02,17,00,35.40
2010,06,02,17,01,19.30
2010,06,02,17,02,27.40
2010,06,02,17,03,33.80
2010,06,02,17,04,43.50
2010,06,02,17,05,40.20
2010,06,02,17,06,38.60
2010,06,02,17,07,40.20
2010,06,02,17,08,38.60
2010,06,02,17,09,41.80
2010,06,02,17,10,35.40
2010,06,02,17,11,40.20
2010,06,02,17,12,35.40
2010,06,02,17,13,32.20
2010,06,02,17,14,30.60
2010,06,02,17,15,38.60
2010,06,02,17,16,32.20
2010,06,02,17,17,38.60
2010,06,02,17,18,40.20
2010,06,02,17,19,29.00
2010,06,02,17,20,40.20
2010,06,02,17,21,25.70
2010,06,02,17,22,25.70
2010,06,02,17,23,29.00
2010,06,02,17,24,32.20
2010,06,02,17,25,29.00
2010,06,02,17,26,25.70
2010,06,02,17,27,30.60
2010,06,02,17,28,33.80
2010,06,02,17,29,41.80
2010,06,02,17,30,33.80
2010,06,02,17,31,33.80
2010,06,02,17,32,43.50
2010,06,02,17,33,46.70
2010,06,02,17,34,33.80
2010,06,02,17,35,35.40
2010,06,02,17,36,48.30
2010,06,02,17,37,35.40
2010,06,02,17,38,33.80
2010,06,02,17,39,38.60
2010,06,02,17,40,38.60
2010,06,02,17,41,35.40
2010,06,02,17,42,45.10
2010,06,02,17,43,40.20
2010,06,02,17,44,38.60
2010,06,02,17,45,38.60
2010,06,02,17,46,35.40
2010,06,02,17,47,35.40
2010,06,02,17,48,35.40
2010,06,02,17,49,35.40
2010,06,02,17,50,51.50
2010,06,02,17,51,53.10
2010,06,02,17,52,51.50
2010,06,02,17,53,40.20
2010,06,02,17,54,38.60
2010,06,02,17,55,32.20
2010,06,02,17,56,51.50
2010,06,02,17,57,49.90
2010,06,02,17,58,45.10
2010,06,02,17,59,45.10
2010,06,02,18,00,41.80
2010,06,02,18,01,35.40
2010,06,02,18,02,41.80
2010,06,02,18,03,45.10
2010,06,02,18,04,27.40
2010,06,02,18,05,41.80
2010,06,02,18,06,35.40
2010,06,02,18,07,48.30
2010,06,02,18,08,38.60
2010,06,02,18,09,33.80
2010,06,02,18,10,30.60
2010,06,02,18,11,40.20
2010,06,02,18,12,33.80
2010,06,02,18,13,45.10
2010,06,02,18,14,33.80
2010,06,02,18,15,46.70
2010,06,02,18,16,30.60
2010,06,02,18,17,40.20
2010,06,02,18,18,48.30
2010,06,02,18,19,56.30
2010,06,02,18,20,56.30
2010,06,02,18,21,41.80
2010,06,02,18,22,43.50
2010,06,02,18,23,46.70
2010,06,02,18,24,57.90
2010,06,02,18,25,46.70
2010,06,02,18,26,41.80
2010,06,02,18,27,46.70
2010,06,02,18,28,49.90
2010,06,02,18,29,46.70
2010,06,02,18,30,43.50
2010,06,02,18,31,33.80
2010,06,02,18,32,51.50
2010,06,02,18,33,51.50
2010,06,02,18,34,40.20
2010,06,02,18,35,45.10
2010,06,02,18,36,38.60
2010,06,02,18,37,48.30